Stuart, FL

9:55 AM EDT on April 21, 2018 (GMT -0400)
Witham

Weather History for KSUA - February, 2012

Change the Weather History Date:

Wednesday, February 15, 2012

  Actual Average Record
Temperature  
Mean Temperature 68 °F -  
Max Temperature 78 °F 76 °F 86 °F (2017)
Min Temperature 57 °F 56 °F 44 °F (2015)
Cooling Degree Days 2    
Growing Degree Days 18 (Base 50)    
Moisture  
Dew Point 59 °F    
Average Humidity 77    
Maximum Humidity 100    
Minimum Humidity 47    
Precipitation  
Precipitation 0.00 in - - ()
Sea Level Pressure  
Sea Level Pressure 30.18 in    
Wind  
Wind Speed 4 mph (South)    
Max Wind Speed 14 mph    
Max Gust Speed 21 mph    
Visibility 9 miles    
Events      
Averages and records for this station are not official NWS values.
T = Trace of Precipitation, MM = Missing Value Source: NWS Daily Summary

Daily Weather History Graph

Daily Weather History Graph

Search for Another Location

Airport or City:

Astronomy

Feb. 15, 2012 Rise Set
Actual Time 6:57 AM EST 6:12 PM EST
Civil Twilight 6:34 AM EST 6:36 PM EST
Nautical Twilight 6:06 AM EST 7:03 PM EST
Astronomical Twilight 5:39 AM EST 7:30 PM EST
Moon 1:33 AM EST (2/15) 12:22 PM EST (2/15)
Length of Visible Light 12h 02m
Length of Day
11h 14m
Last Quarter, 39% of the Moon is Illuminated
Feb 15
Last Quarter
Feb 21
New
Feb 29
First Quarter
Mar 8
Full
Mar 14
Last Quarter

Hourly Weather History & Observations

Time (EST) Temp. Dew Point Humidity Pressure Visibility Wind Dir Wind Speed Gust Speed Precip Events Conditions
12:15 AM 64.4 °F 57.2 °F 77% 30.15 in 10.0 mi SW 3.5 mph - N/A   Clear
12:35 AM 62.6 °F 57.2 °F 82% 30.15 in 10.0 mi SSW 4.6 mph - N/A   Clear
12:55 AM 62.6 °F 57.2 °F 82% 30.16 in 10.0 mi SW 3.5 mph - N/A   Clear
1:15 AM 62.6 °F 57.2 °F 82% 30.16 in 10.0 mi WSW 3.5 mph - N/A   Clear
1:35 AM 62.6 °F 57.2 °F 82% 30.15 in 10.0 mi SW 3.5 mph - N/A   Clear
1:55 AM 62.6 °F 59.0 °F 88% 30.15 in 10.0 mi WSW 3.5 mph - N/A   Clear
2:15 AM 62.6 °F 59.0 °F 88% 30.15 in 10.0 mi WSW 3.5 mph - N/A   Clear
2:35 AM 62.6 °F 59.0 °F 88% 30.15 in 10.0 mi WSW 3.5 mph - N/A   Clear
2:55 AM 62.6 °F 59.0 °F 88% 30.15 in 10.0 mi WSW 3.5 mph - N/A   Clear
3:15 AM 62.6 °F 59.0 °F 88% 30.15 in 10.0 mi WSW 3.5 mph - N/A   Clear
3:35 AM 62.6 °F 59.0 °F 88% 30.15 in 10.0 mi Calm Calm - N/A   Clear
3:55 AM 60.8 °F 57.2 °F 88% 30.15 in 10.0 mi Calm Calm - N/A   Clear
4:15 AM 59.0 °F 55.4 °F 88% 30.15 in 10.0 mi Calm Calm - N/A   Clear
4:35 AM 59.0 °F 55.4 °F 88% 30.15 in 10.0 mi WSW 3.5 mph - N/A   Clear
4:55 AM 59.0 °F 57.2 °F 94% 30.15 in 10.0 mi WSW 3.5 mph - N/A   Clear
5:15 AM 60.8 °F 59.0 °F 94% 30.16 in 10.0 mi Calm Calm - N/A   Clear
6:47 AM 57.2 °F 57.2 °F 100% 30.18 in 6.0 mi Calm Calm - N/A   Scattered Clouds
7:47 AM 59.0 °F 57.2 °F 94% 30.20 in 7.0 mi Calm Calm - N/A   Scattered Clouds
8:47 AM 64.4 °F 62.6 °F 94% 30.22 in 6.0 mi Calm Calm - N/A   Haze
9:47 AM 73.4 °F 60.8 °F 65% 30.23 in 5.0 mi Calm Calm - N/A   Haze
10:47 AM 77.0 °F 60.8 °F 57% 30.24 in 7.0 mi SE 6.9 mph - N/A   Scattered Clouds
11:47 AM 77.0 °F 59.0 °F 54% 30.23 in 10.0 mi East 9.2 mph - N/A   Scattered Clouds
1:47 PM 77.0 °F 59.0 °F 54% 30.18 in 7.0 mi East 11.5 mph - N/A   Mostly Cloudy
2:47 PM 78.8 °F 57.2 °F 47% 30.16 in 7.0 mi East 13.8 mph - N/A   Mostly Cloudy
3:47 PM 78.8 °F 59.0 °F 51% 30.16 in 7.0 mi ESE 13.8 mph - N/A   Scattered Clouds
4:47 PM 77.0 °F 59.0 °F 54% 30.16 in 10.0 mi SE 10.4 mph 20.7 mph N/A   Scattered Clouds
5:47 PM 75.2 °F 62.6 °F 65% 30.18 in 10.0 mi ESE 9.2 mph - N/A   Scattered Clouds
6:47 PM 73.4 °F 62.6 °F 69% 30.18 in 10.0 mi SE 5.8 mph - N/A   Partly Cloudy
7:15 PM 69.8 °F 60.8 °F 73% 30.18 in 10.0 mi SE 6.9 mph - N/A   Clear
7:35 PM 69.8 °F 60.8 °F 73% 30.19 in 10.0 mi SSE 8.1 mph - N/A   Clear
7:55 PM 71.6 °F 60.8 °F 69% 30.19 in 10.0 mi SSE 8.1 mph - N/A   Clear
8:15 PM 69.8 °F 60.8 °F 73% 30.20 in 10.0 mi South 5.8 mph - N/A   Clear
8:35 PM 69.8 °F 60.8 °F 73% 30.20 in 10.0 mi South 4.6 mph - N/A   Clear
8:55 PM 69.8 °F 60.8 °F 73% 30.21 in 10.0 mi SSE 4.6 mph - N/A   Clear
9:15 PM 69.8 °F 60.8 °F 73% 30.21 in 10.0 mi SSE 4.6 mph - N/A   Clear
9:35 PM 69.8 °F 62.6 °F 78% 30.20 in 10.0 mi SSE 3.5 mph - N/A   Clear
9:55 PM 68.0 °F 60.8 °F 78% 30.20 in 10.0 mi SSE 3.5 mph - N/A   Clear
10:15 PM 68.0 °F 60.8 °F 78% 30.20 in 10.0 mi South 4.6 mph - N/A   Clear
10:35 PM 68.0 °F 60.8 °F 78% 30.20 in 10.0 mi SSE 3.5 mph - N/A   Clear
10:55 PM 69.8 °F 60.8 °F 73% 30.20 in 10.0 mi South 3.5 mph - N/A   Clear
11:15 PM 68.0 °F 60.8 °F 78% 30.20 in 10.0 mi Calm Calm - N/A   Clear
11:35 PM 68.0 °F 62.6 °F 83% 30.20 in 10.0 mi Calm Calm - N/A   Clear
11:55 PM 64.4 °F 60.8 °F 88% 30.20 in 10.0 mi Calm Calm - N/A   Scattered Clouds